Location: Unspecified
(51.5491°N, 0.7083°E)
Time: 02:16:39
(UTC+00:00)

ISS - Visible Passes

Search period start: 14 December 2019 00:00
Search period end: 24 December 2019 00:00
Orbit: 411 x 421 km, 51.6° (Epoch: 14 December)

Date Brightness Start Highest point End Pass type
(mag) Time Alt. Az. Time Alt. Az. Time Alt. Az.
21 Dec -0.7 06:55:35 10° S 06:57:44 16° SE 06:59:54 10° E visible
22 Dec -0.4 06:08:30 10° SSE 06:09:24 11° SE 06:10:18 10° ESE visible
23 Dec -1.8 06:54:01 10° SW 06:56:59 31° SSE 06:59:58 10° E visible
